{"data":{"norad_id":44777,"epoch":"2026-09-20T04:00:55.516608Z","epoch_age_seconds":47095,"freshness":"FRESH","line1":"1 44777U 19075A   26263.16730922  .00010244  00000+0  24517-3 0  9992","line2":"2 44777  97.4914 349.3116 0007162 100.8081 259.3972 15.41629936379503","mean_motion":15.41629936,"eccentricity":0.0007162,"inclination_deg":97.4914,"raan_deg":349.3116,"arg_perigee_deg":100.8081,"mean_anomaly_deg":259.3972,"bstar":0.00024517,"rev_number":37950,"period_min":93.407630869981,"perigee_km":436.41429316809,"apogee_km":446.18245239606,"semimajor_km":6819.4353727821,"source":"CELESTRAK","updated_at":"2026-09-20T09:00:14.541269Z"}}